[[{"header":{"parameterUnit":"m.s-1","parameterCategory":1,"la1":30.2991,"la2":30.254,"lo1":-89.0895,"lo2":-89.0444,"dy":0.0017,"dx":0.0017,"nx":28,"ny":28,"refTime":"2023-11-17T03:00:00:Z","depth":0,"parameterNumber":2,"parameterNumberName":"U-component_of_WINDS"},"data":[0,0,0,0,0,0,0,0,0,0,0,0,0,0,0,0,0,0,0,0,0,0,0,0,0,0,0,0,0,0,0,0,0,0,0,0,0,0,0,0,0,0,0,0,0,0,0,0,0,0,0,0,0,0,0,0,0,0,-0.652,-0.652,0,-0.6562,-0.6562,-0.6563,-0.655,-0.6549,-0.6548,-0.6548,-0.6594,-0.6596,-0.6598,0,0,0,0,0,0,0,0,0,0,0,0,0,-0.6431,-0.6432,-0.652,-0.652,-0.6521,-0.6562,-0.6562,-0.6563,-0.655,-0.6549,-0.6548,-0.6547,-0.6593,-0.6595,-0.6598,0,0,0,0,0,0,0,0,0,0,0,0,0,-0.6471,-0.6433,-0.6519,-0.6519,-0.652,-0.6562,-0.6562,-0.6563,-0.6551,-0.6549,-0.6548,-0.6547,-0.6592,-0.6595,-0.6598,-0.6644,0,0,-0.6608,-0.6609,0,0,0,0,0,0,0,0,-0.6468,-0.6474,-0.6519,-0.6519,-0.652,-0.6549,-0.6548,-0.659,-0.6551,-0.6539,-0.6548,-0.6546,-0.658,-0.6584,-0.6595,-0.6646,-0.6648,-0.6608,-0.661,-0.6611,-0.6612,0,0,0,0,0,0,0,-0.6466,-0.6472,-0.6536,-0.6519,-0.652,-0.6518,-0.6522,-0.6556,-0.6567,-0.654,-0.6539,-0.6544,-0.658,-0.6592,-0.6596,-0.6649,-0.6608,-0.6611,-0.6612,-0.6614,-0.674,-0.6741,0,0,0,0,0,0,-0.6462,-0.647,-0.6535,-0.6538,-0.649,-0.6521,-0.6525,-0.6541,-0.6566,-0.6569,-0.6545,-0.6543,-0.6588,-0.6593,-0.6598,-0.6654,-0.6611,-0.6614,-0.6616,-0.6738,-0.674,-0.6742,0,0,0,0,0,0,-0.646,-0.6468,-0.6533,-0.6504,-0.6512,-0.6523,-0.6542,-0.6543,-0.6555,-0.657,-0.6572,-0.6555,-0.6587,-0.6593,-0.6632,-0.6655,-0.6615,-0.6618,-0.6736,-0.6739,-0.6741,-0.6765,0,0,0,0,0,0,-0.6458,-0.6467,-0.6484,-0.6504,-0.6513,-0.6567,-0.6543,-0.6545,-0.656,-0.6558,-0.658,-0.6583,-0.6586,-0.6628,-0.6635,-0.6658,-0.6621,-0.6735,-0.6738,-0.674,-0.6762,-0.6768,-0.6773,0,0,0,0,0,-0.6455,-0.649,-0.6485,-0.6493,-0.6535,-0.6568,-0.6573,-0.6576,-0.6561,-0.6579,-0.6589,-0.6582,-0.6651,-0.6632,-0.664,-0.6665,-0.6733,-0.6737,-0.674,-0.676,-0.6767,-0.6772,0,0,0,0,0,0,-0.6474,-0.6493,-0.6488,-0.653,-0.6547,-0.6566,-0.6588,-0.6583,-0.6605,-0.6603,-0.6606,-0.6611,-0.6651,-0.6662,-0.664,-0.671,-0.669,-0.6695,-0.6702,-0.6709,-0.6714,-0.6712,-0.6623,0,0,0,0,0,-0.6483,-0.6508,-0.6523,-0.6559,-0.6568,-0.6576,-0.6591,-0.6591,-0.661,-0.6617,-0.663,-0.6649,-0.6675,-0.6692,-0.6717,-0.6763,-0.6769,-0.6784,-0.6789,-0.6793,-0.6798,-0.6825,-0.6832,-0.6753,-0.6753,-0.6753,0,0,-0.6502,-0.6515,-0.6531,-0.6563,-0.6577,-0.6603,-0.6583,-0.6612,-0.6632,-0.6622,-0.666,-0.667,-0.6691,-0.6734,-0.6754,-0.6744,-0.6821,-0.6798,-0.6801,-0.6804,-0.6829,-0.6836,-0.6843,-0.6755,-0.6755,-0.6754,0,0,-0.6551,-0.6563,-0.6595,-0.6609,-0.6629,-0.6634,-0.6642,-0.6661,-0.6667,-0.6704,-0.6698,-0.6722,-0.6766,-0.6782,-0.6796,-0.685,-0.6845,-0.6858,-0.6886,-0.6911,-0.6917,-0.6923,-0.6944,-0.6951,-0.6862,-0.6863,-0.6863,0,-0.6573,-0.6612,-0.6612,-0.6642,-0.6656,-0.6647,-0.668,-0.6694,-0.6721,-0.6732,-0.672,-0.6776,-0.679,-0.6837,-0.685,-0.6861,-0.6871,-0.6856,-0.6916,-0.6922,-0.6927,-0.6947,-0.6955,-0.6864,-0.6864,-0.6864,-0.6864,0,-0.6639,-0.6666,-0.6689,-0.6715,-0.6732,-0.6763,-0.6769,-0.6786,-0.6785,-0.6792,-0.683,-0.6846,-0.6874,-0.6885,-0.6884,-0.6932,-0.6926,-0.6915,-0.6895,-0.6936,-0.6955,-0.6963,-0.6866,-0.6866,-0.6865,-0.6865,0,0,-0.6703,-0.6728,-0.6736,-0.6748,-0.6769,-0.6791,-0.6822,-0.6848,-0.6864,-0.6882,-0.6909,-0.6947,-0.6937,-0.6952,-0.6953,-0.6975,-0.7019,-0.6962,-0.6963,-0.6974,-0.7075,-0.7084,-0.7093,-0.7015,-0.7016,-0.7017,-0.7073,0,-0.6755,-0.6808,-0.6809,-0.6858,-0.6884,-0.6875,-0.6902,-0.6919,-0.6926,-0.6949,-0.6957,-0.6984,-0.6968,-0.6978,-0.6999,-0.7009,-0.704,-0.7005,-0.7042,-0.7043,-0.7038,-0.7102,-0.7112,-0.7164,-0.708,-0.7082,-0.7083,0,-0.6823,-0.6844,-0.6896,-0.6913,-0.6924,-0.6948,-0.6973,-0.6994,-0.7013,-0.7017,-0.7034,-0.7031,-0.7063,-0.7041,-0.7086,-0.7063,-0.7077,-0.7084,-0.7086,-0.7092,-0.7067,-0.7111,-0.7181,-0.719,-0.7094,-0.7093,-0.7092,0,-0.6867,-0.6907,-0.6944,-0.6954,-0.6975,-0.6992,-0.7002,-0.7019,-0.7035,-0.7056,-0.7067,-0.7092,-0.7106,-0.7126,-0.7131,-0.7114,-0.7177,-0.7154,-0.7182,-0.7183,-0.7198,-0.7197,-0.7273,-0.7204,-0.7204,-0.7204,-0.7204,0,-0.6926,-0.6959,-0.6963,-0.6986,-0.7022,-0.7023,-0.7059,-0.7067,-0.7083,-0.7108,-0.7101,-0.7125,-0.7129,-0.7153,-0.7157,-0.7195,-0.7201,-0.7206,-0.7207,-0.7208,-0.7207,-0.7219,-0.7216,-0.7206,-0.7206,-0.7205,-0.7205,0,-0.6982,-0.6986,-0.7026,-0.7042,-0.7047,-0.7073,-0.7087,-0.7109,-0.7115,-0.7147,-0.7154,-0.7164,-0.7192,-0.7198,-0.7233,-0.7235,-0.7281,-0.7277,-0.7275,-0.7275,-0.7303,-0.7301,-0.7391,-0.7403,-0.7324,-0.7325,-0.7326,0,-0.7021,-0.7045,-0.7064,-0.7079,-0.709,-0.7115,-0.7131,-0.7132,-0.7149,-0.7172,-0.7192,-0.722,-0.7242,-0.7289,-0.73,-0.7326,-0.7324,-0.7354,-0.7329,-0.7329,-0.7327,-0.7326,-0.733,-0.736,-0.736,-0.7361,-0.7362,0,-0.7089,-0.709,-0.7112,-0.7136,-0.7155,-0.7174,-0.7192,-0.7205,-0.7209,-0.7228,-0.7257,-0.7274,-0.7309,-0.7338,-0.7364,-0.7375,-0.737,-0.7369,-0.7377,-0.738,-0.7378,-0.7381,-0.729,-0.7368,-0.7367,-0.7367,-0.7366,-0.7366,-0.7139,-0.716,-0.7177,-0.7203,-0.7216,-0.7233,-0.7254,-0.7262,-0.7286,-0.7314,-0.7313,-0.7345,-0.7363,-0.7398,-0.741,-0.7436,-0.7427,-0.7439,-0.7442,-0.7445,-0.7449,-0.7372,-0.7441,-0.7441,-0.744,-0.744,-0.744,0,-0.7208,-0.7218,-0.7242,-0.7266,-0.7287,-0.7278,-0.7297,-0.7315,-0.7343,-0.736,-0.7382,-0.7416,-0.7443,-0.7455,-0.7483,-0.7501,-0.7499,-0.7508,-0.7508,-0.7511,-0.7454,-0.7445,-0.7509,-0.7509,-0.7509,-0.7509,-0.7509,-0.7509,-0.7247,-0.7284,-0.7287,-0.733,-0.734,-0.737,-0.7382,-0.7398,-0.7412,-0.7449,-0.7471,-0.7479,-0.7494,-0.7522,-0.7547,-0.755,-0.7562,-0.7572,-0.7575,-0.7522,-0.7515,-0.7508,-0.75,-0.7574,-0.7574,-0.7629,-0.763,-0.763]},{"header":{"parameterUnit":"m.s-1","parameterCategory":1,"la1":30.2991,"la2":30.254,"lo1":-89.0895,"lo2":-89.0444,"dy":0.0017,"dx":0.0017,"nx":28,"ny":28,"refTime":"2023-11-17T03:00:00:Z","depth":0,"parameterNumber":3,"parameterNumberName":"V-component_of_WINDS"},"data":[0,0,0,0,0,0,0,0,0,0,0,0,0,0,0,0,0,0,0,0,0,0,0,0,0,0,0,0,0,0,0,0,0,0,0,0,0,0,0,0,0,0,0,0,0,0,0,0,0,0,0,0,0,0,0,0,0,0,-2.2762,-2.2762,0,-2.2773,-2.2774,-2.2774,-2.2743,-2.2742,-2.2741,-2.274,-2.2751,-2.2752,-2.2754,0,0,0,0,0,0,0,0,0,0,0,0,0,-2.2712,-2.2713,-2.2762,-2.2762,-2.2762,-2.2773,-2.2774,-2.2774,-2.2743,-2.2742,-2.2741,-2.274,-2.2751,-2.2752,-2.2754,0,0,0,0,0,0,0,0,0,0,0,0,0,-2.273,-2.2713,-2.2762,-2.2748,-2.2747,-2.2773,-2.2774,-2.2774,-2.2743,-2.2742,-2.2741,-2.2739,-2.275,-2.2752,-2.2754,-2.2793,0,0,-2.2759,-2.276,0,0,0,0,0,0,0,0,-2.2729,-2.2731,-2.275,-2.2749,-2.2748,-2.2755,-2.276,-2.278,-2.2744,-2.2745,-2.274,-2.2739,-2.2754,-2.2755,-2.276,-2.2794,-2.2794,-2.2759,-2.2761,-2.2761,-2.2762,0,0,0,0,0,0,0,-2.2727,-2.2731,-2.2766,-2.275,-2.2749,-2.2741,-2.2742,-2.2764,-2.2757,-2.2745,-2.2742,-2.2744,-2.2753,-2.2759,-2.276,-2.2794,-2.2759,-2.2761,-2.2762,-2.2763,-2.286,-2.2862,0,0,0,0,0,0,-2.2728,-2.273,-2.2766,-2.2767,-2.2735,-2.2743,-2.2744,-2.2754,-2.2757,-2.2756,-2.2746,-2.2743,-2.2756,-2.2758,-2.2761,-2.2807,-2.2761,-2.2763,-2.2764,-2.2859,-2.2861,-2.2862,0,0,0,0,0,0,-2.2727,-2.2732,-2.2766,-2.2748,-2.2751,-2.2746,-2.2757,-2.2755,-2.2761,-2.2757,-2.2756,-2.2753,-2.2755,-2.2758,-2.2785,-2.2807,-2.2764,-2.2765,-2.2857,-2.2859,-2.2861,-2.29,0,0,0,0,0,0,-2.2726,-2.2732,-2.2747,-2.2748,-2.2753,-2.2791,-2.2759,-2.2757,-2.2765,-2.2761,-2.2764,-2.2763,-2.2755,-2.2783,-2.2787,-2.2808,-2.2767,-2.2855,-2.2858,-2.2861,-2.2897,-2.2903,-2.2909,0,0,0,0,0,-2.2724,-2.2757,-2.2748,-2.2752,-2.2772,-2.2792,-2.2794,-2.2784,-2.2766,-2.2782,-2.2779,-2.2763,-2.2804,-2.2786,-2.279,-2.2813,-2.2854,-2.2857,-2.286,-2.2894,-2.2902,-2.2908,0,0,0,0,0,0,-2.2758,-2.2757,-2.2747,-2.2781,-2.2787,-2.2787,-2.2806,-2.2793,-2.2803,-2.28,-2.2786,-2.2787,-2.2817,-2.2817,-2.2798,-2.2851,-2.2826,-2.283,-2.2849,-2.2857,-2.2863,-2.2862,-2.2768,0,0,0,0,0,-2.277,-2.2787,-2.2784,-2.2815,-2.2818,-2.2812,-2.282,-2.2812,-2.2817,-2.2819,-2.2818,-2.2824,-2.2838,-2.2847,-2.286,-2.2896,-2.2896,-2.2914,-2.292,-2.2925,-2.2929,-2.2948,-2.2955,-2.2874,-2.2874,-2.2873,0,0,-2.2794,-2.2795,-2.2807,-2.2822,-2.2825,-2.2843,-2.2814,-2.2834,-2.2846,-2.2822,-2.2848,-2.2847,-2.2852,-2.2884,-2.2898,-2.2886,-2.2951,-2.2929,-2.2933,-2.2935,-2.2952,-2.296,-2.2967,-2.2876,-2.2875,-2.2875,0,0,-2.2846,-2.2849,-2.2875,-2.2879,-2.2884,-2.2879,-2.2885,-2.2887,-2.2886,-2.2912,-2.2894,-2.2908,-2.2933,-2.2937,-2.2942,-2.2996,-2.2981,-2.3,-2.3032,-2.305,-2.3057,-2.3063,-2.3082,-2.3089,-2.3004,-2.3004,-2.3004,0,-2.2875,-2.2901,-2.2889,-2.291,-2.2917,-2.2896,-2.2922,-2.2926,-2.2935,-2.294,-2.2926,-2.2956,-2.2958,-2.299,-2.3003,-2.3009,-2.3015,-2.3,-2.3057,-2.3063,-2.3068,-2.3086,-2.3093,-2.3006,-2.3006,-2.3006,-2.3006,0,-2.2936,-2.2955,-2.2974,-2.2984,-2.2993,-2.3017,-2.3008,-2.3018,-2.3009,-2.3005,-2.3031,-2.3033,-2.3045,-2.3052,-2.3043,-2.3083,-2.3075,-2.3059,-2.3034,-2.3078,-2.3095,-2.3101,-2.301,-2.3009,-2.3008,-2.3008,0,0,-2.3011,-2.3014,-2.3021,-2.3025,-2.303,-2.3043,-2.3065,-2.3077,-2.3087,-2.3093,-2.3111,-2.3132,-2.3117,-2.3123,-2.3114,-2.3131,-2.3173,-2.3112,-2.3112,-2.3124,-2.3217,-2.3229,-2.3237,-2.3163,-2.3164,-2.3165,-2.3216,0,-2.3063,-2.3101,-2.3091,-2.3129,-2.3145,-2.3125,-2.3143,-2.3148,-2.3145,-2.3158,-2.3154,-2.317,-2.3149,-2.3152,-2.3167,-2.3164,-2.3191,-2.316,-2.3179,-2.318,-2.3179,-2.3246,-2.3259,-2.3308,-2.3223,-2.3224,-2.3225,0,-2.3129,-2.3139,-2.3178,-2.3179,-2.3186,-2.3203,-2.3213,-2.3226,-2.323,-2.3227,-2.3234,-2.3221,-2.3242,-2.3216,-2.3245,-2.3224,-2.3231,-2.3231,-2.3232,-2.3234,-2.3205,-2.325,-2.3323,-2.333,-2.3235,-2.3234,-2.3233,0,-2.318,-2.3203,-2.3229,-2.3233,-2.3235,-2.3247,-2.3249,-2.3252,-2.3259,-2.3268,-2.3273,-2.3284,-2.329,-2.3299,-2.3289,-2.3271,-2.3319,-2.3293,-2.3317,-2.3317,-2.3328,-2.3328,-2.3404,-2.3332,-2.3332,-2.3332,-2.3332,0,-2.3239,-2.3264,-2.3252,-2.3268,-2.3295,-2.3283,-2.331,-2.3309,-2.3311,-2.3327,-2.3309,-2.3324,-2.3311,-2.3324,-2.3317,-2.3342,-2.3344,-2.3342,-2.334,-2.3344,-2.3344,-2.3349,-2.3345,-2.3334,-2.3334,-2.3333,-2.3333,0,-2.3301,-2.3294,-2.3321,-2.332,-2.3321,-2.3341,-2.334,-2.3355,-2.335,-2.337,-2.3374,-2.3367,-2.3382,-2.3373,-2.3388,-2.3383,-2.3415,-2.3408,-2.3414,-2.3412,-2.3437,-2.3435,-2.3519,-2.3529,-2.3451,-2.3452,-2.3452,0,-2.3339,-2.3358,-2.3359,-2.3369,-2.3371,-2.3386,-2.3394,-2.3382,-2.3391,-2.3397,-2.3411,-2.3424,-2.3434,-2.3459,-2.3455,-2.3466,-2.3459,-2.3488,-2.3461,-2.3464,-2.346,-2.3459,-2.3461,-2.3494,-2.3495,-2.3495,-2.3496,0,-2.3409,-2.3404,-2.3416,-2.3427,-2.3437,-2.3445,-2.3451,-2.346,-2.3448,-2.3458,-2.3473,-2.3481,-2.3497,-2.351,-2.352,-2.352,-2.3506,-2.3504,-2.3511,-2.3515,-2.3518,-2.3517,-2.3429,-2.3503,-2.3502,-2.3501,-2.3501,-2.3501,-2.346,-2.3475,-2.3479,-2.3493,-2.3496,-2.3502,-2.3516,-2.3513,-2.3526,-2.3537,-2.3529,-2.3547,-2.355,-2.3562,-2.3564,-2.3578,-2.3566,-2.3575,-2.3577,-2.358,-2.3583,-2.3515,-2.3579,-2.3579,-2.3579,-2.3579,-2.3578,0,-2.3528,-2.3529,-2.3542,-2.3552,-2.3562,-2.3548,-2.3554,-2.3564,-2.358,-2.3584,-2.3594,-2.3611,-2.3624,-2.3621,-2.3632,-2.3644,-2.3638,-2.3647,-2.3646,-2.3647,-2.3593,-2.3587,-2.3652,-2.3652,-2.3652,-2.3652,-2.3652,-2.3652,-2.3565,-2.359,-2.3586,-2.3613,-2.3613,-2.3631,-2.3635,-2.3641,-2.3644,-2.3664,-2.3675,-2.3672,-2.3674,-2.3685,-2.3696,-2.3694,-2.3699,-2.3711,-2.3708,-2.3658,-2.3651,-2.3644,-2.3638,-2.3713,-2.3713,-2.376,-2.3761,-2.3761]}]]